Welcome to the New NWS' Forecast!
Most changes are behind the scenes, but click here for differences you might notice.

Regional Weather Roundup (RWR)

Issued by National Weather Service (NWS)

                            
198 
ASUS46 KSEW 151010
RWRWA 

WASHINGTON REGIONAL WEATHER ROUNDUP
NATIONAL WEATHER SERVICE SEATTLE WA
300 AM PDT SUN JUL 15 2018

NOTE:"FAIR" INDICATES FEW OR NO CLOUDS BELOW 12,000 FEET WITH NO 
SIGNIFICANT WEATHER AND/OR OBSTRUCTIONS TO VISIBILITY.

WAZ507-509-555>559-151100-
SEATTLE, TACOMA, EVERETT, AND VICINITY
  
CITY           SKY/WX    TMP DP  RH WIND       PRES   REMARKS
EVERETT        CLEAR     64  48  56 NW5       30.05F                  
BOEING FIELD   CLEAR     68  53  58 CALM      30.03S                  
RENTON         CLEAR     69  56  62 N5        30.02S                  
SEATAC AIRPORT CLEAR     69  53  56 CALM      30.04S                  
JBLM-MCCHORD   CLEAR     57  56  97 CALM      30.04S                  
PUYALLUP       FAIR      57  57 100 CALM      30.05S                  
BREMERTON      CLEAR     52  46  80 CALM      30.05S                  
JBLM-FT LEWIS  CLEAR     61  51  70 CALM      30.03S                  
TACOMA NARROWS CLEAR     63  48  58 CALM      30.05R                  
$$
 
WAZ001-503-506-510-514-515-151100-
NORTH INTERIOR
  
CITY           SKY/WX    TMP DP  RH WIND       PRES   REMARKS
BELLINGHAM     CLEAR     58  54  86 CALM      30.03S                  
FRIDAY HARBOR  CLEAR     52  46  80 CALM      30.04F                  
EASTSOUND      CLEAR     59  54  82 S5        30.03R                  
PORT ANGELES   CLEAR     55  42  61 CALM      30.05S                  
EDIZ HOOK      FAIR      52  47  83 CALM      30.04S                  
PORT TOWNSEND  FAIR      50  48  93 CALM      30.04F                  
NAS WHIDBEY    CLEAR     55  48  77 SE3       30.07F                  
ARLINGTON      CLEAR     57  53  86 CALM      30.04F                  
BURLINGTON     CLEAR     59  55  88 CALM      30.04S                  
$$
 
WAZ020-022-039-040-504-511-512-151100-
SOUTHWEST INTERIOR
  
CITY           SKY/WX    TMP DP  RH WIND       PRES   REMARKS
SHELTON        CLEAR     53  49  86 CALM      30.02S                  
OLYMPIA        CLEAR     56  50  80 CALM      30.03S                  
CHEHALIS       FAIR      59  57  94 NE3       30.03S                  
KELSO          PTCLDY    64  57  78 CALM      30.02S                  
VANCOUVER      CLEAR     65  56  72 CALM      29.98S                  
SCAPPOOSE, OR  CLEAR     71  53  52 N6        29.98S                  
PORTLAND, OR   CLEAR     71  57  61 NW3       29.99S                  
$$
 
WAZ021-516-517-151100-
WASHINGTON COAST
  
CITY           SKY/WX    TMP DP  RH WIND       PRES   REMARKS
FORKS          CLEAR     51  49  92 CALM      30.04S                  
HOQUIAM        CLEAR     58  56  93 CALM      30.04S                  
ASTORIA, OR    CLEAR     54  53  97 CALM      30.02S                  
$$
 
WAZ019-023-024-040-567>569-151100-
CASCADE MOUNTAINS AND COLUMBIA GORGE
  
CITY           SKY/WX    TMP DP  RH WIND       PRES   REMARKS
STAMPEDE PASS  CLEAR     62  51  67 NE3       30.19S                  
TROUTDALE, OR  CLEAR     66  58  75 CALM      29.99S                  
HOOD RIVER, OR SUNNY     64  52  63 S6        30.02S                  
THE DALLES, OR CLEAR     67  51  56 CALM      29.99R                  
$$

WAZ026-027-041>044-520-521-151100-
EAST SLOPES
  
CITY           SKY/WX    TMP DP  RH WIND       PRES   REMARKS
OMAK           CLEAR     59  38  45 NW7       30.09S                  
WENATCHEE      CLEAR     67  39  35 NW3       30.06S                  
ELLENSBURG     CLEAR     60  43  53 CALM      30.08S                  
YAKIMA         CLEAR     63  47  55 W6        30.04S                  
SUNNYSIDE ARPT SUNNY     55  50  82 CALM      30.02R                  
YAKIMA TC        N/A     63  33  31 CALM      30.04R                  
$$

WAZ028-034-035-151100-
COLUMBIA BASIN
  
CITY           SKY/WX    TMP DP  RH WIND       PRES   REMARKS
EPHRATA        CLEAR     73  23  15 NW15      30.04S                  
MOSES LAKE     CLEAR     57  35  43 N5        30.04S                  
PASCO          PTCLDY    57  48  72 CALM      30.00S                  
RICHLAND ARPT  MOSUNNY   59  51  74 CALM      30.00S                  
HERMISTON, OR  CLEAR     60  45  57 CALM      29.99S                  
$$

WAZ036>038-151100-
NORTHEAST WASHINGTON
  
CITY           SKY/WX    TMP DP  RH WIND       PRES   REMARKS
SPOKANE GEIGER CLEAR     59  33  37 W5        30.09S                  
SPOKANE FELTS  CLEAR     55  41  59 NE3       30.09R                  
FAIRCHILD AFB  NOT AVBL                                               
COEURDALENE,ID CLEAR     52  38  58 NE5       30.10S                  
DEER PARK      CLEAR     47  34  60 CALM      30.09S                  
$$

WAZ029>033-151100-
SOUTHEAST WASHINGTON
  
CITY           SKY/WX    TMP DP  RH WIND       PRES   REMARKS
PULLMAN        CLEAR     49  41  74 CALM      30.11S                  
LEWISTON, ID   CLEAR     66  39  37 SE3       30.04S                  
WALLA WALLA    CLEAR     63  39  41 SE5       30.02S                  
PENDLETON, OR  CLEAR     64  42  44 SE12      30.03R                  
$$